Weather History for KHJH - March, 2014

Change the Weather History Date:

Wednesday, March 26, 2014

  Actual Average Record
Temperature  
Mean Temperature 45 °F -  
Max Temperature 62 °F 55 °F 85 °F (1976)
Min Temperature 29 °F 31 °F -2 °F (1965)
Degree Days  
Heating Degree Days 20    
Moisture  
Dew Point 28 °F    
Average Humidity 59    
Maximum Humidity 93    
Minimum Humidity 31    
Precipitation  
Precipitation 0.00 in - - ()
Sea Level Pressure  
Sea Level Pressure 29.78 in    
Wind  
Wind Speed 19 mph (South)    
Max Wind Speed 40 mph    
Max Gust Speed 51 mph    
Visibility 8 miles    
Events      
Averages and records for this station are not official NWS values.
T = Trace of Precipitation, MM = Missing Value Source: NWS Daily Summary

Daily Weather History Graph

Daily Weather History Graph

Search for Another Location

Airport or City:

Trip Planner

Search our weather history database for the weather conditions in past years. The results will help you decide how hot, cold, wet, or windy it might be!

Date:

Astronomy

Mar. 26, 2014 Rise Set
Actual Time 7:23 AM CDT 7:48 PM CDT
Civil Twilight 6:56 AM CDT 8:15 PM CDT
Nautical Twilight 6:24 AM CDT 8:47 PM CDT
Astronomical Twilight 5:52 AM CDT 9:20 PM CDT
Moon 4:33 AM CDT (3/26) 3:28 PM CDT (3/26)
Length of Visible Light 13h 19m
Length of Day
12h 24m
Waning Crescent, 21% of the Moon is Illuminated
Mar 26
Waning Crescent
Mar 30
New
Apr 7
First Quarter
Apr 15
Full
Apr 22
Last Quarter

Hourly Weather History & Observations

Time (CDT) Temp. Windchill Dew Point Humidity Pressure Visibility Wind Dir Wind Speed Gust Speed Precip Events Conditions
12:15 AM 31.1 °F 23.1 °F 14.7 °F 51% 30.10 in 10.0 mi SSE 9.2 mph - N/A   Clear
12:35 AM 30.7 °F 23.3 °F 14.9 °F 52% 30.10 in 10.0 mi SSE 8.1 mph - N/A   Clear
12:55 AM 30.2 °F 21.9 °F 14.9 °F 53% 30.09 in 10.0 mi SE 9.2 mph - N/A   Clear
1:15 AM 29.3 °F 21.5 °F 15.1 °F 55% 30.08 in 10.0 mi SSE 8.1 mph - N/A   Clear
1:35 AM 30.6 °F 21.8 °F 15.4 °F 54% 30.08 in 10.0 mi SSE 10.4 mph - N/A   Clear
1:55 AM 29.8 °F 20.9 °F 15.8 °F 56% 30.07 in 10.0 mi SSE 10.4 mph - N/A   Clear
2:15 AM 29.7 °F 21.3 °F 16.3 °F 58% 30.06 in 10.0 mi SE 9.2 mph - N/A   Clear
2:35 AM 29.8 °F 20.9 °F 16.7 °F 58% 30.05 in 10.0 mi SSE 10.4 mph - N/A   Clear
2:55 AM 30.4 °F 21.0 °F 16.9 °F 57% 30.03 in 10.0 mi SSE 11.5 mph - N/A   Clear
3:15 AM 30.2 °F 20.8 °F 17.1 °F 58% 30.02 in 10.0 mi SSE 11.5 mph - N/A   Clear
3:35 AM 31.8 °F 21.8 °F 16.7 °F 54% 30.01 in 10.0 mi SSE 13.8 mph - N/A   Clear
3:55 AM 32.0 °F 20.8 °F 16.2 °F 52% 30.00 in 10.0 mi SSE 17.3 mph 23.0 mph N/A   Clear
4:15 AM 32.2 °F 23.2 °F 15.8 °F 51% 29.98 in 10.0 mi SSE 11.5 mph 21.9 mph N/A   Clear
4:35 AM 32.2 °F 21.4 °F 15.8 °F 51% 29.97 in 10.0 mi SSE 16.1 mph 23.0 mph N/A   Clear
4:55 AM 32.7 °F 21.8 °F 15.8 °F 50% 29.96 in 10.0 mi South 17.3 mph 21.9 mph N/A   Clear
5:15 AM 33.3 °F 21.8 °F 16.3 °F 50% 29.94 in 10.0 mi SSE 19.6 mph 26.5 mph N/A   Clear
5:35 AM 33.8 °F 22.5 °F 16.7 °F 50% 29.93 in 10.0 mi South 19.6 mph 26.5 mph N/A   Clear
5:55 AM 32.9 °F 21.6 °F 16.9 °F 52% 29.92 in 10.0 mi South 18.4 mph 28.8 mph N/A   Clear
6:15 AM 32.5 °F 20.8 °F 17.4 °F 54% 29.91 in 10.0 mi South 19.6 mph 26.5 mph N/A   Clear
6:35 AM 32.4 °F 20.9 °F 18.1 °F 56% 29.91 in 10.0 mi South 18.4 mph 24.2 mph N/A   Clear
6:55 AM 32.4 °F 21.7 °F 18.5 °F 57% 29.90 in 10.0 mi SSE 16.1 mph 24.2 mph N/A   Clear
7:15 AM 32.2 °F 21.1 °F 19.2 °F 59% 29.90 in 10.0 mi South 17.3 mph 27.6 mph N/A   Clear
7:35 AM 32.2 °F 21.8 °F 19.4 °F 59% 29.89 in 10.0 mi South 15.0 mph 20.7 mph N/A   Clear
7:55 AM 32.9 °F 22.0 °F 20.1 °F 59% 29.88 in 10.0 mi South 17.3 mph 24.2 mph N/A   Clear
8:15 AM 33.8 °F 22.2 °F 20.8 °F 59% 29.88 in 10.0 mi South 20.7 mph 26.5 mph N/A   Clear
8:35 AM 34.7 °F 24.0 °F 21.2 °F 58% 29.87 in 10.0 mi SSE 18.4 mph 26.5 mph N/A   Clear
8:55 AM 36.5 °F 26.0 °F 22.1 °F 56% 29.86 in 10.0 mi South 19.6 mph 26.5 mph N/A   Clear
9:15 AM 39.0 °F 28.5 °F 23.0 °F 53% 29.84 in 10.0 mi South 23.0 mph 32.2 mph N/A   Clear
9:35 AM 41.2 °F 31.4 °F 23.4 °F 49% 29.83 in 10.0 mi South 23.0 mph 29.9 mph N/A   Clear
9:55 AM 43.5 °F 33.8 °F 23.7 °F 46% 29.82 in 10.0 mi South 26.5 mph 32.2 mph N/A   Clear
10:15 AM 45.5 °F 36.1 °F 24.3 °F 43% 29.81 in 10.0 mi South 28.8 mph 36.8 mph N/A   Clear
10:35 AM 48.9 °F - 25.2 °F 40% 29.79 in 10.0 mi South 27.6 mph 34.5 mph N/A   Clear
10:55 AM 52.0 °F - 25.9 °F 36% 29.78 in 7.0 mi South 33.4 mph 42.6 mph N/A   Clear
11:15 AM 53.4 °F - 26.1 °F 35% 29.76 in 4.0 mi South 36.8 mph 50.6 mph N/A   Haze
11:35 AM 54.5 °F - 26.1 °F 33% 29.76 in 5.0 mi South 34.5 mph 44.9 mph N/A   Haze
11:55 AM 56.5 °F - 26.6 °F 32% 29.74 in 7.0 mi South 26.5 mph 41.4 mph N/A   Clear
12:15 PM 58.5 °F - 27.7 °F 31% 29.73 in 10.0 mi South 25.3 mph 42.6 mph N/A   Clear
12:35 PM 59.7 °F - 30.2 °F 33% 29.72 in 5.0 mi South 33.4 mph 43.7 mph N/A   Haze
12:55 PM 61.0 °F - 30.6 °F 32% 29.70 in 5.0 mi SSW 33.4 mph 40.3 mph N/A   Haze
1:15 PM 60.8 °F - 30.7 °F 32% 29.69 in 4.0 mi SSW 32.2 mph 46.0 mph N/A   Haze
1:35 PM 60.8 °F - 31.6 °F 33% 29.67 in 4.0 mi South 38.0 mph 50.6 mph N/A   Haze
1:55 PM 61.3 °F - 32.5 °F 34% 29.66 in 4.0 mi SSW 40.3 mph 48.3 mph N/A   Haze
2:15 PM 61.5 °F - 32.4 °F 33% 29.66 in 4.0 mi South 39.1 mph 50.6 mph N/A   Haze
2:35 PM 60.1 °F - 32.2 °F 35% 29.65 in 3.0 mi South 34.5 mph 48.3 mph N/A   Haze
2:55 PM 58.1 °F - 33.4 °F 39% 29.64 in 5.0 mi SSW 38.0 mph 48.3 mph N/A   Haze
3:15 PM 56.7 °F - 35.1 °F 44% 29.64 in 5.0 mi SSW 35.7 mph 47.2 mph N/A   Haze
3:35 PM 55.4 °F - 36.7 °F 49% 29.65 in 5.0 mi SSW 38.0 mph 49.5 mph N/A   Haze
3:55 PM 54.3 °F - 37.2 °F 52% 29.66 in 5.0 mi SSW 38.0 mph 44.9 mph N/A   Haze
4:15 PM 53.4 °F - 37.9 °F 56% 29.65 in 10.0 mi South 33.4 mph 42.6 mph N/A   Mostly Cloudy
4:35 PM 52.0 °F - 39.0 °F 61% 29.64 in 7.0 mi SSW 34.5 mph 49.5 mph N/A   Overcast
4:55 PM 50.2 °F - 39.2 °F 66% 29.64 in 10.0 mi South 31.1 mph 41.4 mph N/A   Overcast
5:15 PM 48.4 °F - 39.2 °F 71% 29.64 in 10.0 mi South 28.8 mph 40.3 mph N/A   Overcast
5:35 PM 47.8 °F - 39.2 °F 72% 29.64 in 10.0 mi South 28.8 mph 39.1 mph N/A   Overcast
5:55 PM 47.3 °F - 39.2 °F 73% 29.63 in 10.0 mi South 29.9 mph 38.0 mph N/A   Overcast
6:15 PM 46.8 °F - 39.4 °F 75% 29.63 in 10.0 mi South 31.1 mph 36.8 mph N/A   Overcast
6:35 PM 46.8 °F - 39.6 °F 76% 29.61 in 10.0 mi South 21.9 mph 34.5 mph N/A   Overcast
6:55 PM 46.8 °F - 39.4 °F 75% 29.61 in 10.0 mi South 23.0 mph 34.5 mph N/A   Overcast
7:15 PM 46.6 °F - 39.6 °F 77% 29.61 in 10.0 mi South 24.2 mph 41.4 mph N/A   Overcast
7:40 PM 45.7 °F 37.4 °F 39.6 °F 79% 29.60 in 10.0 mi South 23.0 mph 31.1 mph N/A   Overcast
7:55 PM 45.5 °F 36.3 °F 39.4 °F 79% 29.60 in 10.0 mi South 27.6 mph 34.5 mph N/A   Overcast
8:15 PM 45.0 °F 36.2 °F 39.6 °F 81% 29.60 in 10.0 mi South 24.2 mph 34.5 mph N/A   Overcast
8:35 PM 44.2 °F 35.2 °F 39.7 °F 84% 29.59 in 7.0 mi South 24.2 mph 34.5 mph N/A   Overcast
8:55 PM 43.7 °F 34.3 °F 40.1 °F 87% 29.59 in 5.0 mi South 25.3 mph 31.1 mph N/A   Overcast
9:15 PM 43.7 °F 34.7 °F 39.7 °F 86% 29.59 in 7.0 mi South 23.0 mph 36.8 mph N/A   Overcast
9:35 PM 43.7 °F 35.2 °F 40.1 °F 87% 29.58 in 5.0 mi South 20.7 mph 33.4 mph N/A   Overcast
9:55 PM 43.3 °F 34.2 °F 40.5 °F 90% 29.59 in 5.0 mi South 23.0 mph 33.4 mph N/A   Overcast
10:15 PM 43.3 °F 34.2 °F 41.0 °F 91% 29.58 in 5.0 mi South 23.0 mph 28.8 mph N/A   Overcast
10:35 PM 43.3 °F 35.2 °F 41.0 °F 91% 29.57 in 4.0 mi South 18.4 mph 28.8 mph N/A   Overcast
10:55 PM 43.0 °F 34.0 °F 41.0 °F 93% 29.57 in 4.0 mi South 21.9 mph 31.1 mph N/A   Overcast
11:15 PM 42.8 °F 34.8 °F 41.0 °F 93% 29.56 in 4.0 mi South 17.3 mph 24.2 mph N/A   Overcast
11:35 PM 43.0 °F 34.5 °F 41.0 °F 93% 29.55 in 4.0 mi South 19.6 mph 27.6 mph N/A   Overcast
11:55 PM 43.2 °F 33.8 °F 41.2 °F 93% 29.53 in 4.0 mi South 24.2 mph 31.1 mph N/A   Overcast